Theta_e
309 308 311 315 319 323 322 320 318 319 318 315 319 321 324 326 326 328 327 325 326 322 319 319 318 320 324 325 325 323 321 325 327 327 328 321 319 323 324 327 328 328 330 331 333 333 333 333 334 334 335 335 335 335 335 335 335 335 335 335 335 335 336 335 335 337 337 335 335 335 334 334 333 332 331 330 326 323 322 322 321 320 320 318 316 315 314 313 311 309 306 306 306 304 303 303 302
309 309 315 319 322 323 321 320 318 318 316 315 319 323 327 326 326 329 329 327 326 321 317 317 317 318 319 319 319 322 322 321 320 320 321 319 321 324 325 327 327 328 329 331 332 332 333 332 332 333 333 333 334 335 335 335 335 334 335 336 336 336 336 335 335 336 336 334 334 335 334 334 333 331 330 328 326 323 321 320 319 317 316 314 313 312 311 311 311 310 307 306 305 304 302 302 302
309 312 318 322 322 322 321 319 318 317 315 314 319 326 327 328 329 330 328 325 322 318 317 316 318 318 318 321 321 324 323 319 320 319 319 321 322 323 325 326 326 328 329 331 331 331 331 331 331 331 332 332 332 333 333 334 334 334 335 336 336 335 334 333 332 331 331 331 333 334 333 332 331 329 327 327 326 323 319 317 316 315 313 313 313 313 313 312 312 311 310 309 308 306 304 303 302
311 316 320 322 321 321 320 317 318 317 314 314 318 326 328 330 329 326 325 322 319 317 317 317 319 318 318 321 321 323 321 318 320 320 320 321 321 323 324 325 326 327 329 330 330 330 330 329 328 329 330 331 331 331 331 333 334 334 335 335 334 332 330 329 328 328 327 328 330 332 332 331 330 328 326 325 323 320 317 316 315 314 313 312 311 310 309 309 309 309 308 308 307 305 303 302 302
315 319 321 321 321 321 320 318 318 316 316 317 320 326 328 329 327 324 321 319 317 317 317 318 320 318 317 318 318 321 321 318 320 320 321 321 321 323 323 324 325 326 328 329 330 330 330 328 327 329 329 330 331 331 331 333 333 334 334 333 331 329 328 327 327 328 327 328 329 329 329 329 328 327 325 322 319 317 316 315 313 312 310 308 307 307 308 309 309 309 308 308 307 304 302 301 301
319 321 320 320 320 319 319 317 317 317 320 322 325 327 327 327 325 323 320 318 316 316 317 318 319 319 318 317 317 319 319 318 319 320 321 321 321 322 323 324 324 326 328 329 330 330 330 328 326 327 328 329 330 331 332 332 332 332 331 330 328 327 327 326 327 327 328 329 329 326 326 325 324 324 322 319 317 317 315 312 309 307 307 308 309 310 311 312 312 312 311 309 307 305 302 301 300
320 321 319 319 319 320 320 317 318 322 323 324 328 328 327 327 324 323 321 320 318 316 316 317 317 319 321 319 317 318 318 318 318 319 320 321 321 322 322 322 324 325 327 328 329 329 330 328 326 325 326 327 328 329 330 331 331 330 328 327 327 327 326 325 324 324 324 326 325 323 323 322 321 320 320 317 315 316 315 311 309 308 310 311 312 313 313 314 314 313 310 305 302 302 301 300 300
320 320 320 321 321 323 322 321 322 325 326 324 326 326 326 326 323 324 324 323 322 319 317 316 314 319 321 317 318 318 317 318 318 320 320 320 321 321 321 322 323 324 326 328 328 328 329 329 326 325 324 325 327 327 328 329 329 328 327 327 326 326 325 324 323 322 321 322 322 320 320 319 319 318 317 315 313 315 314 312 313 312 312 314 314 315 315 315 315 312 307 304 302 302 301 300 300
319 319 320 321 321 323 323 323 323 324 325 325 325 324 324 323 322 325 324 322 321 319 318 316 315 320 320 316 318 316 316 318 318 319 319 320 321 320 321 321 322 323 325 326 326 326 327 328 327 326 325 324 325 325 326 326 327 326 326 325 325 324 323 323 322 322 321 321 321 320 319 318 318 317 315 314 313 314 314 314 314 313 314 314 315 315 314 313 311 307 304 304 303 303 302 301 300
320 319 321 322 320 321 322 322 324 324 325 325 325 324 322 321 321 324 324 321 319 319 318 314 314 318 318 319 319 316 316 317 317 318 319 319 320 320 320 320 320 321 323 324 325 325 325 326 326 326 326 324 324 324 324 324 324 324 323 323 324 323 323 323 322 322 321 321 321 320 320 318 318 318 317 316 316 316 316 316 315 315 315 315 314 314 311 307 304 302 302 301 300 300 300 300 300
321 320 321 321 319 319 319 321 324 325 325 324 325 324 322 321 321 322 322 321 318 319 317 314 317 317 318 321 319 316 316 316 317 318 318 319 319 320 320 319 319 320 321 322 323 323 323 324 325 325 325 324 323 323 323 323 323 323 323 323 323 323 323 322 322 321 321 320 320 320 319 319 319 319 319 318 318 317 316 317 316 315 314 313 313 311 307 302 300 300 299 299 298 298 298 299 299
321 321 320 320 320 319 320 322 325 325 325 324 325 324 322 320 322 323 323 322 319 318 317 316 319 318 320 322 318 317 316 316 318 318 318 319 319 319 320 320 319 320 320 321 321 321 321 322 323 322 322 323 322 321 321 322 322 322 322 322 322 322 322 321 321 320 321 320 320 320 319 318 318 319 319 317 317 316 315 315 315 315 312 308 306 304 302 300 299 299 299 300 299 299 299 299 299
321 322 320 320 321 321 322 323 325 325 325 325 326 323 321 322 323 325 324 322 320 319 319 317 316 316 321 321 318 317 316 316 318 318 318 318 319 319 319 319 320 320 320 320 319 319 320 321 320 320 320 321 321 320 319 320 320 320 320 320 320 320 320 320 319 319 319 319 319 319 319 318 318 317 318 317 316 315 314 313 312 311 307 304 301 300 299 299 299 299 299 299 299 299 299 299 299
321 321 321 321 321 322 323 324 324 325 325 325 325 321 320 322 322 322 322 322 321 320 319 316 314 315 319 320 318 317 316 317 317 318 318 318 319 319 319 319 319 320 319 320 319 319 319 319 319 319 319 319 318 318 318 319 319 319 319 318 318 318 318 319 318 318 318 318 317 317 318 317 315 315 315 315 314 314 313 310 307 305 302 300 300 299 299 299 300 300 300 300 300 300 300 300 300
320 320 321 322 322 323 323 324 324 324 325 324 322 320 320 320 319 319 319 322 321 318 318 315 314 316 319 320 319 316 316 317 317 318 318 318 319 319 319 319 319 320 319 319 319 318 318 318 318 318 318 318 318 318 318 318 318 318 318 318 317 317 317 317 317 317 316 316 315 315 315 314 313 313 313 312 312 311 309 307 304 302 300 300 300 300 300 300 300 300 300 300 300 300 300 300 300
319 321 322 322 323 323 323 323 323 324 324 323 319 319 320 319 318 318 318 320 318 316 316 315 314 317 317 318 318 316 316 317 317 318 318 318 318 319 319 319 319 319 319 318 318 317 317 317 317 317 318 318 317 317 317 317 317 317 317 317 317 317 316 316 316 315 315 314 314 314 313 312 312 312 311 310 310 309 307 305 303 302 301 301 300 300 301 300 300 300 299 299 299 299 299 299 299
320 321 322 321 322 322 322 322 323 324 323 321 317 318 322 320 316 317 317 317 316 315 315 315 315 316 316 316 316 315 316 317 317 318 318 318 318 318 319 319 319 319 319 318 317 317 317 317 317 317 317 317 317 316 316 316 316 316 316 316 315 315 315 314 314 314 313 313 313 312 312 311 311 310 309 308 307 306 305 303 302 302 301 301 300 301 301 300 299 299 299 299 299 299 299 299 299
321 322 321 321 322 322 321 323 323 322 322 321 318 318 323 322 316 315 316 315 313 313 313 315 316 317 317 317 317 316 315 316 317 317 318 319 318 319 318 319 319 319 319 318 317 317 317 317 316 316 316 316 316 316 316 316 316 316 316 315 315 314 314 313 313 312 312 311 311 310 310 309 308 307 306 305 304 302 301 301 300 300 300 300 300 299 300 299 298 299 299 299 299 299 299 299 299
322 322 321 321 322 321 321 323 323 322 323 322 319 318 320 321 317 314 316 317 314 314 316 315 315 317 317 317 318 317 316 315 316 317 318 319 319 319 319 319 319 319 319 319 318 317 317 317 316 316 316 316 316 316 316 316 316 315 315 315 314 314 313 313 313 312 310 310 309 309 308 307 306 305 304 302 301 299 299 299 299 299 299 299 299 299 298 298 298 298 298 298 298 298 298 298 298
321 321 322 322 321 322 321 323 323 321 321 322 320 317 317 318 316 314 316 318 316 316 319 317 316 317 318 318 318 318 317 316 315 316 317 318 319 319 319 319 319 320 320 319 319 318 317 317 316 316 316 315 315 315 315 315 315 315 315 314 313 313 312 312 312 310 309 308 308 307 307 306 305 303 302 300 299 298 298 299 299 299 299 299 299 298 298 298 298 298 298 298 298 298 298 298 298
320 320 322 321 320 321 321 321 321 319 320 321 320 317 317 317 314 314 316 318 318 319 320 319 318 318 318 318 318 318 318 317 316 315 316 317 318 319 319 319 319 320 320 319 319 318 317 317 316 316 315 315 315 315 315 315 315 315 314 313 312 312 312 311 310 309 308 307 306 306 305 304 303 302 301 299 299 299 299 299 299 299 299 299 298 298 298 298 298 298 298 298 298 298 298 298 298
320 320 321 320 320 321 320 319 320 318 318 319 319 318 318 316 314 315 316 318 319 321 319 317 318 318 318 317 317 318 317 318 317 316 316 316 317 318 319 319 319 319 320 319 319 318 317 317 316 315 315 315 315 315 315 315 314 314 314 313 312 311 311 310 309 308 306 305 305 305 304 303 302 301 300 299 299 299 299 299 299 299 298 298 298 298 298 298 297 298 298 297 297 298 298 298 298
319 320 320 319 320 320 318 317 318 318 318 320 319 318 316 316 316 314 314 317 319 319 317 317 317 317 317 317 317 317 317 317 317 317 317 316 317 317 318 319 319 319 319 319 319 318 317 316 316 315 315 315 315 314 314 314 314 313 313 313 312 311 311 310 308 307 306 305 304 304 303 302 301 300 300 299 299 298 299 299 299 298 298 298 298 297 297 297 297 297 297 297 297 297 298 298 298
319 319 320 319 319 319 318 317 317 316 317 319 317 317 316 317 317 312 312 316 317 317 316 316 316 316 316 316 316 316 316 316 317 317 317 316 316 317 318 318 319 319 319 319 319 318 317 316 315 315 315 314 314 314 314 314 313 313 312 312 311 311 310 309 308 307 306 304 303 303 302 301 300 299 299 298 298 298 298 298 298 297 297 297 297 297 297 297 297 297 297 297 297 297 297 297 297
319 319 320 320 318 317 317 317 316 315 315 316 315 317 317 315 314 311 313 316 315 315 315 315 315 315 315 315 315 316 316 316 316 317 317 317 316 316 317 318 318 318 318 319 318 317 316 316 315 315 315 314 314 314 314 313 313 312 312 311 310 310 309 308 307 306 305 304 303 302 300 299 298 297 297 297 298 298 298 298 297 297 297 297 297 297 297 297 297 297 297 297 297 297 297 297 297
319 319 320 320 319 316 316 316 315 314 314 314 315 317 315 312 311 312 315 316 314 314 314 315 315 314 314 314 315 315 315 316 316 316 316 317 317 316 316 317 317 318 318 318 318 317 316 315 315 315 314 314 314 314 313 313 312 312 312 311 310 309 308 307 306 305 304 303 302 300 299 298 297 296 297 297 297 297 297 297 297 297 297 297 296 296 296 296 296 296 297 297 297 297 297 296 296
317 318 319 319 318 316 316 315 313 313 313 312 315 317 314 310 311 315 316 315 314 314 314 314 314 314 314 314 314 314 315 316 315 315 316 316 317 317 316 316 316 317 318 318 318 317 316 315 315 315 315 314 314 313 313 313 312 312 311 310 309 308 307 306 305 304 303 302 301 299 298 297 296 296 297 297 297 297 297 297 296 296 296 296 296 296 296 296 296 296 296 296 296 296 296 296 296
317 318 319 318 317 316 316 316 314 314 314 312 313 315 314 309 311 316 315 314 314 314 314 314 314 314 314 314 314 314 315 315 316 316 316 316 317 317 317 317 316 317 317 317 317 317 316 315 315 315 314 314 314 313 313 313 312 311 311 309 308 307 306 305 304 303 302 301 299 298 297 296 296 296 297 297 297 297 297 296 296 296 296 296 296 296 296 296 296 296 296 296 296 296 295 295 295
317 317 318 319 317 317 316 316 313 314 315 312 312 314 315 312 313 316 315 314 314 313 314 313 313 314 314 314 314 315 315 316 316 317 317 317 317 317 317 317 317 316 316 316 316 316 316 315 315 314 314 314 314 313 313 312 312 311 310 309 307 307 306 305 304 303 301 300 298 297 296 295 296 296 297 296 296 296 296 296 296 296 296 296 296 296 296 296 296 296 295 295 295 295 295 295 294
317 316 317 317 318 317 315 314 313 314 315 312 312 315 316 316 316 315 314 313 313 313 313 313 314 314 314 314 314 315 315 316 317 317 317 317 317 317 317 317 317 316 316 316 316 316 316 315 315 314 314 314 313 313 312 312 311 311 310 308 307 306 305 304 304 303 301 299 297 296 295 295 296 296 296 296 296 296 296 296 296 296 296 295 295 295 295 295 295 295 295 295 295 295 295 294 294
316 315 315 316 317 316 313 312 314 315 314 311 313 316 316 316 316 314 313 313 312 312 313 313 314 315 315 315 315 315 315 316 317 317 317 317 317 317 316 316 316 316 316 315 315 315 316 315 315 314 313 313 313 312 312 312 311 310 309 308 307 307 305 304 303 302 301 299 297 296 295 295 295 296 296 296 295 295 295 295 295 295 295 295 295 295 295 295 295 295 295 295 295 295 295 295 294
314 315 316 316 316 315 313 312 314 315 313 310 313 316 317 316 316 313 313 313 312 312 313 314 314 315 315 315 315 315 315 316 316 316 317 316 316 316 316 316 316 316 316 316 315 315 315 315 314 313 313 313 313 312 311 311 311 310 309 308 307 306 305 303 302 301 300 299 298 296 296 295 295 295 295 295 295 295 295 295 295 295 295 295 295 295 295 295 294 294 294 295 295 295 295 295 294
314 314 316 316 315 316 314 312 312 313 313 311 313 315 316 315 315 312 312 312 311 311 313 314 314 314 315 315 315 315 315 315 316 316 316 316 316 316 316 315 315 316 316 316 315 315 314 314 313 313 313 313 312 312 311 311 310 309 308 307 307 306 305 303 302 302 302 301 299 297 296 295 295 295 295 295 295 295 295 295 295 295 294 294 294 294 294 294 294 294 295 295 296 296 295 294 294
315 314 315 316 315 315 314 312 312 312 313 313 313 314 315 315 315 314 313 313 311 310 312 313 314 313 314 314 314 314 314 315 315 315 315 315 315 315 315 315 315 315 315 315 315 314 313 313 312 312 312 313 312 312 311 311 310 309 307 307 307 306 305 304 303 302 302 301 299 298 296 295 294 295 295 295 295 295 294 294 294 294 294 294 294 294 294 294 294 295 295 296 296 295 294 294 293
315 314 314 314 313 313 313 312 312 312 313 314 314 314 314 314 315 316 315 314 311 310 312 313 313 313 313 312 313 313 313 313 314 314 315 315 315 315 314 314 314 314 314 314 314 313 312 312 311 310 311 312 312 312 311 311 310 308 307 307 306 306 305 304 304 303 301 300 299 298 296 295 294 294 294 294 295 294 294 294 294 294 294 294 294 293 293 294 294 295 295 295 295 294 294 293 292
312 312 312 312 312 312 313 312 311 312 313 313 314 314 314 313 314 315 315 315 312 311 312 312 312 312 312 311 312 312 312 312 312 312 313 313 314 314 313 313 312 313 313 314 313 313 312 312 311 311 311 311 312 311 311 311 310 309 307 306 306 306 305 305 303 301 298 297 297 296 294 294 294 294 294 294 294 294 294 294 294 294 294 293 293 293 293 294 294 295 295 295 294 294 293 292 292
310 312 312 312 312 311 312 311 310 311 312 312 313 313 312 312 312 313 314 314 313 312 312 312 312 312 311 311 311 311 311 311 311 311 311 312 312 313 313 312 312 311 312 312 313 313 313 312 312 312 312 312 311 311 311 311 311 310 308 307 307 306 305 304 303 300 297 296 295 294 293 293 293 293 294 294 293 293 293 294 294 293 293 293 293 293 293 294 294 295 295 295 294 293 292 292 291
311 312 312 312 312 312 312 311 308 309 311 311 312 312 311 312 312 313 313 313 313 313 313 312 312 312 312 311 311 311 310 310 310 310 310 310 310 311 311 311 311 311 311 311 312 313 312 312 312 312 312 312 311 311 311 310 310 309 308 307 306 305 305 304 302 301 299 297 294 293 292 293 293 293 293 293 293 293 293 294 293 293 293 293 293 293 293 294 294 295 295 295 294 293 292 292 292
311 312 312 312 312 311 311 310 307 307 310 311 312 311 311 311 311 312 313 312 312 313 313 313 312 312 312 312 311 310 309 309 308 309 309 309 309 310 310 310 310 310 310 310 310 311 312 312 312 312 312 312 311 310 310 309 308 308 306 305 304 303 303 303 302 301 300 297 294 293 292 292 292 292 293 293 292 293 293 293 293 292 292 292 292 293 293 294 294 294 294 295 295 293 292 292 292
311 312 311 312 312 311 311 310 307 307 309 310 310 309 310 311 311 311 312 312 312 312 312 311 311 311 311 311 311 310 309 308 308 308 308 308 308 309 309 309 309 309 309 309 309 309 310 311 312 311 312 311 311 310 309 308 307 306 305 304 303 302 302 302 301 301 300 298 295 293 292 292 291 291 292 292 292 292 292 292 292 292 292 291 292 293 293 294 294 294 294 294 294 293 292 292 291
311 312 311 312 312 311 311 311 308 309 309 308 309 310 312 313 312 312 312 310 310 310 310 310 310 310 310 310 310 310 309 308 308 308 308 308 308 308 309 308 308 308 308 308 308 308 309 310 310 310 310 310 310 309 309 307 307 306 305 304 303 302 302 302 302 301 301 300 298 295 293 292 291 291 291 291 292 292 292 292 292 291 291 291 292 293 293 293 293 293 293 293 293 292 291 291 290
312 312 311 311 312 312 312 310 309 310 311 309 309 311 313 312 312 312 311 310 310 311 310 311 311 310 309 308 308 309 309 309 308 308 309 309 308 308 308 308 307 307 307 307 307 307 308 308 308 309 309 309 309 308 307 307 306 306 305 305 305 304 304 304 304 304 303 302 300 298 296 293 292 291 291 291 291 291 291 291 291 291 291 291 292 292 293 293 293 293 293 293 292 291 291 290 290
312 311 310 311 311 311 311 310 310 311 312 310 308 311 313 313 312 312 312 311 311 312 311 312 312 311 308 308 308 308 308 308 308 307 308 308 307 307 307 307 308 308 307 306 306 306 306 306 307 307 307 307 307 307 307 306 306 306 306 305 305 304 303 304 304 304 303 302 300 298 297 294 292 291 290 291 291 291 291 291 291 290 290 291 291 292 292 292 292 292 292 292 291 291 290 290 289
311 309 308 310 310 311 310 310 310 311 311 309 308 310 312 313 313 312 311 311 311 312 312 312 313 311 308 308 308 308 308 307 307 307 307 307 307 307 307 307 307 306 306 305 305 305 305 305 305 305 305 306 306 306 306 306 306 306 306 306 304 304 303 303 303 302 301 300 299 297 296 294 292 291 290 290 290 290 290 290 290 290 290 291 291 291 292 292 292 292 291 291 290 290 290 290 290
310 306 306 308 309 309 309 310 311 309 310 311 310 310 312 313 313 310 310 311 311 312 312 313 313 310 308 308 308 308 308 308 308 308 307 307 307 306 306 305 305 305 304 304 304 304 303 303 303 303 304 304 304 305 305 305 305 306 306 306 305 305 304 304 303 302 301 300 298 297 295 292 291 290 290 290 290 290 290 289 290 289 290 290 290 291 292 292 291 291 290 290 290 290 290 290 289
307 305 306 308 307 308 309 310 311 309 310 313 311 310 312 313 313 311 309 310 312 312 312 312 312 309 307 308 308 308 308 308 308 308 307 307 307 306 306 305 305 305 304 304 303 303 302 302 302 302 303 303 303 304 304 304 304 305 305 305 305 304 304 304 303 303 302 301 299 297 295 292 290 290 289 289 289 289 289 289 289 289 289 290 290 290 291 291 290 290 290 289 289 289 290 290 289
305 307 308 309 308 308 308 308 309 310 312 313 311 311 311 312 313 312 311 310 311 312 312 311 311 310 308 308 308 308 308 308 308 307 307 307 307 307 307 306 306 305 304 304 303 303 302 302 302 302 302 302 303 303 303 303 304 304 304 304 304 304 303 303 303 303 302 301 300 299 296 292 290 289 289 289 288 289 289 288 288 288 288 289 289 290 290 290 290 289 289 289 289 289 289 289 288
306 309 310 310 310 308 308 309 309 311 314 311 308 309 311 312 313 311 310 308 308 310 310 311 311 310 309 308 308 308 308 308 308 308 307 307 307 307 307 307 307 306 305 304 304 303 303 302 302 303 303 303 303 303 303 303 303 303 303 303 303 303 303 303 303 302 302 301 300 299 297 293 291 289 288 288 288 288 288 288 288 288 288 288 288 289 289 290 289 289 288 288 288 288 288 288 287
307 309 310 311 311 310 311 311 310 312 313 308 306 308 310 311 312 311 310 310 309 309 309 310 309 309 309 309 308 309 309 309 308 308 307 307 307 307 306 306 306 306 305 305 304 303 303 303 303 303 304 303 303 303 303 303 303 303 302 302 302 302 302 302 302 301 301 301 300 299 296 294 292 290 289 288 288 288 288 288 288 288 288 288 288 288 289 289 288 288 287 287 287 287 287 287 287
308 310 311 311 312 313 314 313 311 312 311 306 305 307 310 311 311 310 310 309 309 309 309 308 308 308 309 309 309 309 309 309 308 308 307 307 307 306 305 305 305 305 304 304 304 303 304 304 304 304 304 303 303 303 303 303 303 302 302 301 301 300 300 300 300 300 300 299 299 298 296 294 292 291 290 288 288 287 287 287 287 287 287 287 287 287 288 288 287 287 287 287 287 287 287 286 286
308 309 310 311 312 312 314 314 312 312 311 307 305 308 311 312 310 307 307 306 305 306 307 307 308 308 308 309 309 309 308 308 308 307 307 307 307 306 305 305 304 304 304 303 303 303 304 304 304 303 303 303 304 304 304 303 303 303 302 302 301 300 299 298 298 298 298 298 297 296 296 295 292 290 289 288 287 287 287 287 287 287 286 286 286 286 287 287 286 286 286 286 286 286 286 286 286
308 307 308 310 311 311 311 311 310 310 311 310 308 309 310 311 309 306 306 306 305 305 305 306 308 307 308 308 308 308 308 307 307 307 307 307 306 306 305 305 305 304 304 303 303 303 303 303 303 303 303 302 303 303 303 303 303 303 302 302 301 300 299 298 297 297 296 296 295 295 295 294 292 289 288 287 287 287 286 286 286 285 285 285 285 285 286 286 286 285 285 285 285 285 285 285 285
307 307 309 308 307 308 311 311 309 308 311 313 311 310 311 311 311 307 306 306 306 306 307 307 307 307 307 308 308 307 307 307 307 307 307 306 306 306 305 305 305 304 305 304 304 303 303 303 303 303 303 302 302 302 302 302 302 302 302 302 301 300 299 298 297 296 295 294 294 293 293 293 291 289 287 287 286 286 285 285 285 284 284 284 284 284 285 285 285 284 284 284 284 284 284 284 284
307 308 309 306 306 307 309 311 311 311 313 314 312 312 312 313 311 307 306 307 307 307 307 307 307 307 307 307 307 307 307 307 307 307 307 306 306 306 305 305 304 304 304 304 304 304 303 303 303 303 303 303 303 302 302 301 301 302 302 301 300 300 298 298 297 295 295 294 293 292 292 291 291 289 288 287 286 285 285 284 284 284 283 283 283 283 284 284 284 284 284 284 283 283 283 283 284
306 307 306 306 309 310 309 310 312 313 314 314 313 313 312 313 312 309 308 308 308 307 307 307 307 307 307 307 307 307 307 307 307 307 307 306 306 305 305 304 304 303 303 303 303 303 303 303 303 303 303 303 303 302 302 301 301 300 300 300 299 299 298 297 296 295 294 294 293 291 290 290 290 289 289 287 286 286 285 284 284 283 283 283 283 283 283 283 283 283 283 283 283 283 282 283 283
304 305 305 305 308 310 310 310 310 313 314 313 314 314 312 312 311 310 309 308 307 307 307 306 307 307 307 307 307 307 307 307 307 307 307 306 305 305 304 304 304 304 304 304 304 304 304 304 304 304 303 303 303 303 303 302 301 300 299 298 298 298 297 296 295 295 294 293 293 291 290 289 289 289 288 287 286 285 285 284 284 283 283 283 283 283 282 282 282 282 282 282 282 282 282 282 282
306 307 307 306 306 307 308 308 309 311 313 313 313 313 312 310 309 308 308 307 307 307 307 307 307 307 307 307 307 306 307 307 307 307 306 306 305 304 304 304 305 305 305 305 304 304 304 304 303 303 303 303 303 303 303 302 300 298 298 298 298 297 296 296 295 294 294 293 292 291 290 289 288 288 287 287 286 285 284 284 283 283 283 282 282 282 282 282 282 282 282 281 281 281 281 281 281
308 309 309 309 308 308 309 310 308 308 311 312 312 312 312 308 307 307 307 307 307 307 307 308 307 307 307 306 306 306 306 306 306 306 306 305 305 304 305 305 305 304 304 303 303 302 302 302 302 302 303 302 303 302 302 300 299 298 298 298 297 296 296 295 294 294 293 293 292 291 290 289 288 287 287 286 285 284 283 283 283 282 282 282 282 282 281 281 281 281 281 280 280 280 280 280 281
Wind_Speed
2 6 10 12 14 14 11 7 4 2 2 4 2 2 2 2 1 3 5 3 1 3 1 1 4 6 4 0 2 3 3 3 1 1 1 6 8 9 9 9 11 12 12 12 10 7 5 3 5 4 5 4 8 11 12 11 11 12 13 14 14 15 15 14 16 31 32 31 32 32 28 24 21 19 18 17 16 17 17 17 16 15 14 12 11 11 12 11 12 13 13 13 12 11 10 9 8
4 9 13 13 14 11 7 5 3 3 4 4 3 2 3 4 3 5 6 3 3 4 4 3 4 5 4 2 2 2 2 2 1 2 6 10 11 11 12 12 13 12 12 12 11 9 6 5 8 5 5 3 4 7 10 11 12 14 14 15 14 14 10 9 21 29 32 32 32 32 27 24 22 20 19 18 17 17 17 17 15 14 12 10 10 9 9 9 10 10 11 12 12 11 10 9 8
8 12 14 12 11 7 5 4 3 3 5 5 3 3 5 5 5 3 4 4 5 6 4 3 3 3 3 3 3 4 2 2 3 6 9 12 12 13 14 14 15 13 12 11 11 8 7 8 11 8 3 4 6 7 9 10 12 14 13 11 6 6 12 18 19 21 28 33 33 31 28 26 23 21 19 18 17 17 16 15 13 12 10 8 6 6 6 7 7 7 8 9 9 10 9 8 7
10 13 14 11 7 5 4 3 2 3 5 3 2 5 6 4 4 5 4 3 4 6 3 1 2 3 5 3 3 3 2 3 7 9 11 14 14 15 16 16 16 15 14 12 11 9 9 11 12 9 6 0 7 9 7 8 10 9 8 8 15 21 22 19 15 18 24 30 31 28 27 26 24 22 19 18 17 16 15 13 11 10 8 7 7 7 7 8 8 8 9 9 9 10 8 7 6
11 13 12 8 5 3 2 2 1 3 3 0 1 6 6 3 5 6 5 4 6 5 1 1 1 2 5 5 3 2 2 5 9 12 13 15 15 16 17 17 17 17 16 14 13 13 13 14 12 9 10 8 4 5 4 5 8 11 12 18 24 25 23 19 16 16 19 25 26 24 24 24 23 21 19 17 16 16 14 12 10 10 10 9 9 9 8 7 7 8 8 8 8 9 8 7 7
11 10 8 6 4 3 2 3 3 3 1 2 1 5 5 3 6 7 6 5 5 4 3 3 2 1 3 5 7 5 4 5 9 14 15 17 17 18 18 18 18 18 17 15 15 14 13 14 13 10 10 10 10 8 7 9 14 17 20 24 25 22 21 20 19 18 19 22 22 21 22 21 21 20 18 17 17 15 13 12 12 12 11 9 7 5 4 5 7 7 7 7 7 7 6 6 7
11 8 5 5 3 1 4 3 2 2 2 3 2 5 4 4 7 8 8 5 4 5 5 5 3 2 2 4 6 8 8 7 10 16 17 18 19 18 18 18 18 18 18 16 14 13 12 12 13 13 11 11 12 13 13 12 15 20 22 23 23 21 20 21 21 21 21 22 23 21 21 21 21 20 19 18 16 14 13 12 11 10 8 6 4 2 2 3 5 6 7 7 7 7 7 7 8
9 5 3 4 2 0 2 2 0 1 2 1 1 2 2 6 7 7 7 4 2 3 4 4 4 2 2 3 4 6 9 10 12 17 18 19 19 18 18 18 17 18 18 16 13 12 11 13 15 15 14 13 13 15 16 16 17 20 21 20 20 20 20 20 20 20 21 21 22 22 20 20 20 19 18 16 14 13 12 9 7 5 4 2 1 1 1 2 3 4 6 6 6 6 7 7 8
5 2 3 3 2 1 1 1 1 1 1 2 1 0 1 6 7 5 6 3 1 2 3 4 4 3 1 4 5 6 9 11 13 18 19 19 19 18 18 17 17 17 17 17 14 13 13 14 16 16 16 14 13 13 14 14 16 16 15 15 15 14 13 13 12 11 12 13 14 15 14 14 15 15 14 13 11 9 8 6 4 3 1 1 1 2 1 2 4 6 6 5 4 5 5 5 6
2 1 2 1 2 2 1 1 1 1 2 2 2 2 2 7 6 4 6 3 3 3 3 4 5 6 4 3 6 6 9 12 15 18 19 19 19 18 17 16 16 16 16 16 15 13 13 13 14 14 16 15 13 12 11 11 11 11 10 9 9 8 6 5 6 5 6 7 7 7 7 7 7 7 6 5 4 4 3 3 3 3 3 2 1 1 2 5 7 7 7 6 6 5 5 4 4
2 1 1 2 2 2 2 2 2 1 3 3 3 5 5 8 6 3 6 4 4 5 4 5 5 7 6 4 5 8 9 12 16 19 20 20 19 18 17 16 15 14 14 14 13 12 10 11 11 11 12 13 13 12 11 10 9 8 7 6 5 4 2 3 3 3 4 4 3 4 4 3 3 2 1 2 3 4 5 6 6 5 3 2 1 2 5 8 8 8 7 6 6 6 6 5 5
3 1 2 3 1 1 0 1 3 2 3 4 5 7 7 9 7 4 6 4 5 6 7 8 4 4 5 3 5 8 9 14 18 20 21 20 19 18 17 16 14 14 13 13 12 12 11 11 10 9 9 10 11 12 12 11 9 8 7 6 6 5 5 5 5 5 4 4 4 4 4 4 4 4 3 4 5 5 6 6 6 5 3 3 5 7 8 9 8 8 7 5 5 6 6 6 6
3 1 3 2 0 1 1 1 2 2 3 5 6 8 8 9 8 5 4 3 5 5 5 10 8 3 4 3 6 9 10 15 19 21 22 21 20 19 18 17 16 14 14 13 12 12 12 11 11 9 9 9 9 10 10 10 9 9 8 6 5 5 5 6 6 6 5 5 4 4 5 7 7 6 5 5 5 5 5 4 4 4 5 7 9 9 9 8 8 7 6 6 6 6 6 6 7
3 2 2 1 1 0 2 1 2 3 3 5 6 8 9 7 8 6 4 4 6 7 4 8 9 3 5 5 5 10 11 15 19 21 22 22 21 20 19 18 17 16 15 15 14 13 13 12 12 11 11 9 7 6 6 5 6 7 7 6 4 4 5 5 5 5 4 4 4 5 6 6 7 8 7 7 7 6 6 5 6 8 9 10 10 10 8 8 7 7 6 6 6 6 6 6 7
5 4 0 1 2 2 3 1 3 5 2 5 7 9 9 7 8 7 7 7 6 10 8 6 9 4 3 4 2 6 10 14 19 21 22 22 22 21 20 19 19 18 17 16 16 15 15 14 13 12 12 10 8 6 4 3 4 4 4 3 3 3 4 5 5 4 4 4 4 5 5 5 6 6 6 7 7 6 6 8 9 10 11 10 9 9 8 7 6 5 5 4 5 5 6 6 7
6 4 0 2 2 3 3 3 3 4 2 5 7 9 8 8 9 7 8 10 6 10 12 8 12 9 5 5 3 4 7 12 19 21 22 22 22 22 21 21 20 19 18 18 18 17 15 14 13 13 13 12 10 6 5 3 3 3 2 3 3 3 3 3 4 4 4 5 4 5 5 5 5 4 5 6 6 6 7 9 9 10 9 9 8 7 5 4 4 3 3 3 4 5 5 6 7
5 2 2 2 2 3 5 6 5 2 3 6 8 10 8 6 9 10 10 13 9 10 14 12 15 15 12 11 9 6 5 10 18 21 23 23 23 23 22 22 22 21 19 19 20 18 16 16 14 14 14 14 11 8 7 5 5 5 4 4 3 3 3 3 3 4 4 5 5 5 5 5 5 5 6 7 8 8 8 9 9 9 8 7 4 4 3 3 3 3 3 4 4 5 5 6 7
2 2 3 3 2 2 4 7 5 1 3 6 9 11 10 5 7 10 8 10 11 12 17 17 17 18 18 17 15 13 9 9 15 21 24 24 24 24 24 23 23 22 21 21 21 19 18 17 16 15 14 14 12 10 8 7 6 6 5 4 4 3 3 3 4 4 5 5 5 6 6 6 7 8 9 9 10 10 10 10 10 8 7 5 3 3 3 3 3 3 4 4 5 6 7 7 8
0 1 3 3 1 2 2 5 6 1 4 6 7 10 11 6 5 8 7 7 9 10 14 15 18 19 19 20 19 17 15 12 14 20 24 25 25 25 25 25 24 24 23 23 23 21 19 18 17 16 15 14 12 11 9 8 7 6 6 5 4 4 3 3 3 4 5 6 6 7 7 8 9 10 10 10 10 10 10 9 8 6 4 3 2 2 3 3 3 4 5 5 6 7 8 8 9
0 2 4 1 2 2 3 3 4 2 2 4 5 8 10 7 5 7 6 6 8 11 12 10 15 18 18 19 18 18 17 16 16 19 24 26 26 26 26 26 25 25 24 25 25 23 22 19 19 18 17 15 12 11 10 9 8 6 6 5 4 4 3 3 4 5 6 7 8 8 9 9 10 10 11 11 10 10 9 7 4 2 1 1 1 1 1 2 3 5 6 7 7 8 9 9 9
1 2 2 2 2 2 4 2 3 3 1 2 3 5 7 7 8 8 6 7 9 12 12 10 12 13 14 14 15 16 16 17 18 19 22 25 28 28 28 27 27 26 25 26 27 26 24 22 20 19 17 15 12 11 10 10 8 7 6 6 5 5 5 5 6 8 9 9 10 10 10 10 11 11 11 11 11 10 8 5 3 2 2 2 2 1 1 3 4 5 6 7 8 8 9 9 9
1 0 2 2 2 1 3 2 2 3 2 3 4 4 5 5 9 11 10 10 8 6 7 8 8 9 11 11 12 14 15 16 18 20 22 24 27 29 30 30 28 28 27 28 29 28 26 24 22 20 17 14 13 12 11 11 10 9 8 8 8 8 7 8 9 10 11 11 11 11 11 11 12 12 12 12 11 10 7 5 5 5 5 4 3 3 3 4 5 6 7 7 8 8 8 9 9
1 1 2 2 2 2 3 3 3 4 3 4 4 4 4 4 7 9 14 19 16 13 14 11 10 10 11 11 12 13 13 14 16 19 21 23 26 28 30 31 30 30 29 30 30 30 28 26 23 21 17 15 14 13 13 13 12 11 10 10 10 10 9 10 11 11 11 11 11 11 12 12 13 13 13 12 11 9 7 6 6 6 6 5 4 4 4 5 5 6 6 7 7 8 8 8 8
3 1 4 4 3 1 1 3 4 4 4 5 5 5 5 5 6 5 16 25 24 23 22 19 17 15 14 15 16 15 14 14 14 16 19 22 25 27 29 30 31 31 31 32 32 32 30 27 24 21 19 17 15 14 14 14 13 12 12 11 11 11 11 12 12 12 12 12 12 12 13 14 14 13 13 11 10 8 7 7 7 7 6 6 5 5 5 5 5 5 6 6 7 8 8 8 9
2 0 4 5 4 1 1 2 4 5 5 5 5 6 6 7 7 9 23 30 26 26 25 23 23 22 21 20 19 19 18 16 15 15 17 21 24 27 29 31 32 32 33 33 33 33 30 28 25 22 20 19 17 15 15 16 15 13 13 12 12 11 12 13 14 14 14 14 14 14 15 15 15 14 12 11 9 8 8 8 8 7 6 6 5 5 5 5 6 6 6 7 7 8 8 9 9
1 1 2 4 4 2 2 3 4 5 5 5 6 7 6 6 7 12 23 24 20 21 22 21 22 23 24 23 22 21 20 19 17 16 16 18 21 25 28 30 32 33 33 33 34 33 31 29 26 24 22 21 19 17 17 17 16 15 14 14 13 13 13 14 14 15 15 16 16 16 16 16 15 14 13 12 10 9 10 9 9 8 7 6 6 6 6 6 6 7 7 7 8 8 8 9 10
2 1 2 3 2 2 3 3 4 5 4 6 7 7 5 3 4 9 10 8 8 9 11 13 15 18 21 22 23 22 21 20 19 18 18 18 20 23 26 29 32 32 33 33 34 34 32 29 27 25 24 23 21 20 19 18 17 16 16 16 15 14 14 15 15 16 16 17 17 17 17 16 16 15 14 12 11 11 11 11 10 9 8 8 8 7 7 7 7 7 7 8 8 8 9 9 10
2 3 3 2 1 3 5 4 4 5 3 5 5 7 6 4 5 13 11 9 11 9 10 12 13 15 16 18 21 22 22 22 21 21 21 21 19 20 23 26 29 31 32 33 34 35 33 31 29 28 26 24 23 22 20 19 18 18 17 17 16 15 15 16 16 16 17 17 17 17 17 17 16 15 14 13 13 13 12 12 11 11 10 9 8 8 8 8 8 8 7 7 8 8 9 9 10
4 3 3 3 3 5 6 4 4 5 3 4 2 8 9 10 13 20 16 15 16 14 17 17 17 18 17 18 20 21 22 23 23 24 23 22 20 20 21 23 26 29 31 32 34 35 35 33 31 30 28 26 25 23 22 21 20 19 19 18 17 17 17 17 17 17 17 17 18 17 17 17 16 15 14 14 14 13 13 13 12 11 11 10 9 8 8 8 8 7 7 7 7 8 9 9 10
4 2 3 3 5 4 4 2 3 5 3 4 2 7 6 10 15 15 11 13 13 14 16 17 17 17 17 19 20 21 22 23 24 25 25 23 22 21 22 22 24 27 29 31 33 35 36 35 33 32 30 28 26 25 24 22 21 20 20 19 18 18 18 18 18 18 18 18 19 19 19 18 17 16 15 15 14 14 14 13 13 12 11 10 10 9 9 8 8 7 7 7 8 9 10 11 11
1 1 2 3 4 1 4 3 5 5 4 6 4 7 6 6 8 8 7 10 10 13 15 16 18 18 19 20 21 22 23 24 24 25 25 24 24 23 23 23 24 26 28 30 32 34 36 37 35 33 31 29 27 26 25 23 22 21 21 20 20 19 19 18 18 18 18 19 19 20 20 20 19 18 17 17 16 15 15 14 14 13 12 11 11 10 10 9 8 7 7 7 8 10 11 12 12
0 2 3 2 3 2 3 5 6 3 2 7 6 6 7 8 4 3 7 9 8 12 14 15 18 19 20 22 23 24 25 26 26 26 26 25 26 26 25 25 25 27 28 29 31 33 35 37 37 35 32 30 29 27 26 24 22 22 22 22 21 20 20 20 20 20 20 20 21 22 22 22 21 20 19 18 18 17 17 16 15 14 13 12 12 11 10 9 8 7 6 7 10 12 13 13 13
2 4 5 3 5 4 0 4 5 3 2 7 10 7 6 4 2 1 4 7 8 11 16 21 24 24 25 25 26 27 27 28 29 29 28 27 28 28 27 27 27 28 29 30 31 32 33 36 38 37 33 31 30 29 27 25 23 23 23 23 23 22 22 22 22 22 22 22 23 23 24 24 23 22 21 20 19 19 18 17 16 14 14 13 13 12 11 10 9 8 8 10 12 13 14 14 14
3 3 5 5 6 5 3 2 4 5 4 7 10 10 12 10 9 12 13 15 15 14 19 27 31 32 33 32 32 32 33 34 34 32 30 29 29 29 28 29 29 29 30 31 31 32 32 33 36 37 35 33 31 31 28 26 25 25 25 25 24 24 24 24 24 25 25 25 25 25 26 26 26 25 23 22 21 21 20 18 17 16 15 15 14 13 11 10 9 9 10 12 12 13 13 13 13
3 3 4 4 5 6 7 4 3 6 6 8 9 12 17 16 16 21 22 21 19 18 22 29 32 31 31 33 36 38 39 40 39 38 35 34 31 30 30 30 31 31 32 33 33 33 33 33 34 37 37 35 32 32 30 28 27 27 27 27 27 26 26 26 26 27 28 27 27 27 28 28 28 27 25 24 23 23 22 20 18 17 17 16 14 13 12 12 10 10 11 12 12 12 12 13 13
3 3 4 5 6 6 5 3 3 5 6 10 12 14 18 17 16 19 22 21 19 20 24 27 30 31 31 34 39 41 43 42 40 40 39 38 36 33 32 32 32 33 34 34 35 35 35 34 34 36 38 37 35 34 33 31 29 29 30 29 29 28 28 28 28 28 29 29 29 29 30 30 30 29 27 25 25 25 24 22 20 19 18 17 15 15 14 12 11 11 11 12 12 12 12 13 13
2 4 5 7 9 7 4 2 2 4 6 10 11 15 20 19 16 16 20 22 18 18 22 25 29 31 33 37 42 43 44 44 42 40 39 38 37 36 35 35 34 34 35 36 36 37 37 36 36 37 38 38 38 36 35 33 32 31 31 31 31 30 29 28 28 29 30 31 31 31 31 31 31 30 28 27 27 27 25 24 22 21 19 18 17 17 15 13 12 12 12 13 13 13 13 13 13
5 7 8 8 8 8 7 4 1 5 5 8 8 14 21 18 15 17 18 20 21 22 23 26 28 27 31 36 42 45 43 42 41 38 37 37 37 36 35 36 35 35 36 36 37 37 38 38 38 38 39 39 39 37 36 34 32 31 31 31 30 29 28 28 29 30 31 32 32 33 33 33 32 31 30 29 29 28 27 25 23 22 20 19 19 18 17 14 13 13 14 15 15 15 14 14 15
6 6 7 8 5 6 8 4 2 4 5 7 6 12 19 18 15 17 19 21 26 27 24 25 24 25 30 32 32 36 36 36 36 34 33 33 34 34 34 34 34 35 35 36 37 38 39 40 40 40 40 40 39 37 35 33 32 31 30 30 29 29 29 29 30 31 32 33 34 34 35 34 34 33 32 30 30 30 28 26 25 24 22 21 21 20 17 15 13 14 15 16 17 16 16 16 16
7 6 6 7 2 3 6 2 2 4 5 8 8 11 17 16 13 16 20 23 24 25 23 24 25 28 34 32 26 28 30 32 33 31 29 29 30 32 33 32 32 33 34 37 38 39 40 40 41 41 41 40 39 37 35 33 32 31 31 31 30 30 30 31 32 32 33 33 34 35 36 36 35 34 33 32 32 31 29 27 26 25 24 24 23 21 18 16 14 14 15 16 17 17 17 17 17
7 8 8 8 5 7 8 2 4 5 6 5 8 10 13 8 6 8 8 10 14 18 18 21 28 31 34 33 31 30 29 29 28 27 25 25 26 27 28 30 30 32 33 35 37 39 39 40 40 41 41 40 39 37 35 33 32 32 32 32 32 33 33 34 33 33 33 33 35 36 36 37 37 36 36 34 34 33 31 29 28 26 25 25 25 23 20 17 16 15 16 17 18 18 18 18 17
6 8 11 12 10 10 9 3 4 7 4 1 3 8 9 2 3 6 4 4 9 11 10 17 27 27 24 24 25 22 20 20 20 22 23 23 22 23 24 26 28 30 31 32 34 36 37 38 39 40 39 39 38 36 34 33 32 33 33 34 35 35 35 35 34 33 32 33 34 35 36 38 38 38 38 36 35 33 32 31 30 28 27 27 27 25 23 19 18 17 18 19 19 19 19 18 18
6 4 9 13 11 9 8 4 3 5 4 1 1 5 9 9 9 9 8 8 11 10 8 17 23 18 16 17 17 15 14 15 16 18 21 22 21 21 20 22 23 25 26 27 29 31 34 36 37 38 37 37 36 34 33 32 32 33 34 35 35 35 35 35 33 32 32 32 33 35 36 38 39 40 39 38 36 35 34 33 31 30 29 29 29 27 25 22 20 19 19 19 20 20 19 19 18
4 1 3 7 7 7 6 5 5 5 5 2 4 4 7 13 9 3 6 6 8 10 12 17 14 8 10 12 11 12 12 13 15 15 17 18 18 18 17 18 18 19 21 23 25 27 30 32 34 35 35 34 34 32 32 32 32 33 34 35 35 34 34 34 33 32 32 32 33 34 36 38 39 40 40 39 37 36 35 34 33 32 31 31 31 30 27 24 22 20 19 20 21 20 20 19 19
1 3 2 3 3 3 3 4 5 3 5 6 6 8 5 11 7 5 7 5 7 11 14 13 6 4 10 10 8 9 8 7 9 9 11 12 13 13 13 13 15 17 19 21 22 23 25 28 30 31 32 32 31 31 31 32 32 33 33 33 33 34 34 35 34 34 34 34 35 35 36 38 39 40 40 40 39 38 36 35 34 34 33 32 32 31 28 25 24 22 22 21 22 21 21 21 21
2 5 4 4 4 2 2 3 4 1 6 9 8 10 5 11 12 3 5 4 6 9 8 5 3 6 9 8 4 3 4 4 4 5 6 7 8 9 10 13 15 17 19 19 20 22 24 26 28 29 29 29 29 29 30 30 31 33 33 33 33 34 35 35 36 36 37 37 37 37 37 38 39 40 40 40 39 39 38 37 36 35 34 34 34 33 29 26 26 25 23 23 22 22 21 22 22
5 6 3 3 3 2 1 2 2 2 8 8 9 14 10 8 10 3 4 2 1 3 3 3 4 7 8 5 2 2 3 4 5 7 8 7 8 9 11 14 17 18 19 20 22 23 25 25 26 26 26 27 27 27 27 28 29 30 32 33 34 35 36 36 37 38 40 40 39 38 38 38 39 40 40 40 40 39 38 38 37 36 36 35 35 34 31 28 27 26 25 23 22 22 22 22 22
3 3 3 2 2 2 2 2 3 5 9 3 3 9 11 9 7 1 2 1 0 2 3 3 4 6 8 7 5 7 9 11 13 13 13 13 12 12 13 16 19 20 21 23 24 25 25 24 24 24 25 25 24 24 24 25 26 27 29 32 34 36 38 39 39 40 40 40 39 39 39 39 40 40 41 41 40 39 39 38 38 37 37 37 37 36 33 30 28 27 26 24 23 23 23 23 23
4 4 4 4 4 3 4 4 4 7 6 1 2 3 8 12 11 6 7 8 5 5 4 5 6 9 16 16 13 15 17 19 20 21 21 20 17 15 15 18 20 22 23 24 24 24 23 23 23 23 22 22 21 21 22 23 24 26 29 31 34 36 39 41 41 42 42 42 40 40 39 40 40 40 41 41 40 39 38 38 38 38 38 38 38 37 33 31 29 28 27 25 24 24 24 25 24
7 6 5 6 5 4 6 5 3 5 3 2 2 2 6 11 10 9 11 9 5 4 7 11 12 15 20 21 19 20 21 23 24 24 23 18 15 16 16 17 19 21 23 24 24 23 23 23 22 21 20 20 20 20 21 23 25 27 29 32 34 37 39 41 41 42 44 44 42 41 40 39 39 39 39 39 39 38 38 38 38 38 39 39 39 37 33 31 30 29 28 27 26 25 25 26 26
6 4 3 5 5 4 4 4 4 4 2 2 4 3 6 7 1 0 2 3 3 2 6 9 12 14 17 18 20 21 23 25 24 22 17 12 11 13 13 15 17 20 21 23 23 23 23 23 22 21 21 21 21 22 23 24 25 28 30 32 35 38 39 40 41 41 43 44 43 42 41 40 39 39 38 38 38 37 38 38 39 39 40 39 38 36 34 32 32 31 30 29 28 27 27 27 27
3 2 2 5 4 4 4 4 2 2 4 4 5 4 6 6 3 2 2 3 4 4 4 7 10 13 15 18 19 19 22 23 21 19 15 11 10 10 11 12 14 17 20 22 23 24 24 23 22 22 24 25 26 26 25 26 27 29 31 33 36 39 40 40 41 41 42 43 42 42 41 40 40 38 38 38 37 37 38 38 39 39 39 39 38 37 35 34 33 33 31 30 29 28 28 28 28
3 3 4 2 0 3 5 5 1 1 6 7 5 7 9 8 7 3 2 3 4 5 6 8 9 11 14 16 15 17 22 22 20 17 12 9 8 8 10 12 12 13 17 21 24 24 24 24 24 25 26 27 28 29 30 30 31 32 34 36 38 40 40 41 41 41 41 41 41 40 40 41 40 39 39 39 38 38 38 39 39 39 39 38 38 37 36 35 34 34 33 32 31 29 29 29 28
3 3 3 2 1 1 3 4 1 3 8 6 6 11 11 9 6 1 4 3 3 4 4 3 7 10 11 11 12 16 21 20 16 14 12 10 8 9 11 12 12 12 13 17 22 24 25 25 26 26 26 27 28 30 33 34 35 37 39 40 40 40 40 41 40 40 40 41 40 40 40 41 41 40 40 40 39 39 40 40 39 39 39 38 38 37 36 36 35 35 35 33 32 31 30 30 29
0 1 1 1 2 3 3 2 3 5 7 6 7 11 11 11 7 3 3 3 4 4 4 3 6 8 6 8 12 16 17 15 16 18 19 14 10 10 11 10 10 9 9 11 14 18 23 25 26 27 26 27 30 32 34 37 41 43 42 41 40 40 40 40 40 40 40 41 40 40 40 40 40 40 41 40 40 40 41 41 40 40 39 38 38 37 37 37 37 37 36 35 34 32 32 31 30
1 2 2 0 2 4 3 1 1 4 6 6 7 9 9 8 5 3 3 4 6 5 4 4 7 7 5 9 14 15 14 17 21 25 22 15 11 10 9 6 4 6 9 14 17 20 22 24 27 28 29 32 35 38 40 43 45 45 44 42 41 41 41 40 40 39 40 42 41 40 40 40 40 40 40 40 40 41 41 41 41 41 40 39 39 39 39 39 39 38 37 36 35 33 32 32 31
3 3 4 4 2 1 1 1 1 2 4 4 5 8 8 4 1 3 3 6 7 6 5 5 9 10 9 11 13 13 17 21 25 27 23 16 11 8 5 3 5 9 15 21 25 27 27 29 32 34 36 39 41 43 45 47 46 45 43 42 42 42 41 41 41 40 41 42 41 41 40 40 40 40 40 40 40 40 40 40 41 41 41 40 40 40 40 40 40 39 38 37 35 34 33 32 31
5 5 6 7 6 2 2 4 3 2 4 4 4 8 10 3 2 3 3 5 6 6 7 8 11 13 11 11 12 16 21 24 26 24 19 14 10 9 9 12 16 21 25 27 27 27 26 28 31 35 38 40 42 43 45 45 43 42 41 41 41 42 42 42 42 41 41 42 42 42 40 40 40 40 40 40 40 40 40 39 40 40 41 41 41 41 41 41 41 40 38 37 36 34 34 33 32
Wind_Direction
143 145 150 152 153 151 155 172 191 177 244 239 205 207 149 85 37 164 153 144 143 104 89 126 156 185 186 297 334 0 341 299 318 216 157 131 142 151 158 145 129 117 119 121 129 138 138 138 62 7 290 269 248 238 237 236 246 249 255 262 265 271 276 274 204 168 160 158 164 172 171 168 168 166 160 156 143 126 121 119 121 120 117 119 115 99 86 73 60 61 64 59 55 53 52 51 48
147 149 151 153 157 160 168 199 236 179 218 232 188 200 123 126 197 184 160 136 75 112 118 107 149 192 218 290 307 298 258 271 332 106 117 137 145 146 149 141 132 125 125 124 129 127 118 114 70 29 286 266 249 239 245 241 242 249 252 259 263 269 270 205 178 168 163 160 164 171 171 169 169 170 163 157 147 133 131 125 122 121 118 112 102 89 76 66 61 63 63 59 56 53 52 49 47
152 152 153 153 160 170 167 199 255 197 214 230 174 134 133 166 183 141 128 98 83 133 133 118 157 189 225 253 222 238 258 234 192 142 137 149 148 147 144 138 136 132 135 135 134 128 119 106 80 59 337 271 263 255 249 242 236 242 245 251 239 171 141 139 138 138 144 148 155 162 164 166 165 163 154 149 150 143 137 129 128 124 115 109 98 90 76 67 64 61 60 58 54 52 48 42 43
154 153 152 151 161 173 175 209 262 224 222 231 152 139 161 175 132 101 108 109 126 146 139 148 194 209 225 238 219 248 239 206 193 166 154 158 156 151 144 138 136 133 138 144 145 152 137 100 80 78 61 344 261 269 254 240 229 222 216 183 145 134 132 130 115 106 110 122 138 152 160 166 167 163 153 149 147 143 138 131 134 131 121 112 101 94 88 80 74 64 60 56 52 53 49 46 49
152 151 154 166 183 170 181 217 231 235 237 290 107 142 160 141 113 117 124 147 156 156 174 216 250 211 237 246 218 246 206 200 196 179 162 164 163 154 148 141 136 134 137 144 150 158 146 106 86 95 92 107 168 252 246 212 187 172 166 155 148 142 137 131 131 132 118 121 135 145 154 163 167 164 155 144 133 134 135 131 130 126 121 113 108 100 92 77 63 53 48 47 49 53 51 52 54
149 148 153 172 165 140 193 204 204 212 31 358 67 127 146 128 129 131 127 146 169 199 235 239 272 218 252 245 218 223 206 195 191 182 169 166 167 159 153 145 140 138 138 146 151 155 150 120 100 101 107 117 131 153 172 175 165 161 159 154 152 147 139 126 121 130 134 140 142 139 143 146 149 149 146 132 126 136 133 129 127 123 124 119 119 105 86 61 47 41 36 37 41 49 48 48 50
152 150 150 159 125 133 229 211 211 171 67 354 38 103 133 139 140 138 141 159 185 225 244 232 248 249 248 234 224 232 220 204 189 183 174 170 169 164 157 151 147 145 144 152 156 160 167 150 126 110 113 126 137 147 157 171 169 161 157 155 153 146 140 129 116 113 121 137 137 129 133 136 135 135 136 131 131 143 138 137 137 130 132 131 134 105 62 43 34 36 44 49 50 55 52 48 46
159 160 169 178 129 350 238 201 212 83 71 29 30 70 110 144 153 155 160 173 187 208 237 216 217 248 243 210 222 244 225 208 194 183 176 173 172 169 162 157 152 152 153 160 167 170 182 180 158 134 123 129 143 151 156 169 174 167 163 160 153 146 141 132 122 114 112 121 124 121 124 131 134 132 132 133 136 141 143 146 148 144 146 154 200 276 351 1 15 50 68 70 63 63 55 48 41
161 153 169 198 169 153 190 186 139 89 127 139 162 159 101 149 154 165 166 188 245 209 218 190 201 233 309 220 232 263 230 204 191 181 177 176 176 174 168 162 157 157 159 163 169 171 176 180 174 160 146 141 144 149 152 157 162 159 156 153 146 135 129 123 115 110 100 94 105 110 107 115 122 125 125 129 130 132 137 136 146 167 184 244 276 287 350 36 70 88 92 85 78 79 68 54 43
172 95 153 197 184 188 196 192 152 116 146 148 194 196 166 156 148 165 176 212 232 204 204 184 216 243 294 260 233 255 228 200 189 182 180 180 180 180 174 169 163 160 159 158 161 164 169 172 174 174 164 152 141 139 136 131 134 134 128 133 134 124 116 116 109 102 95 82 84 90 90 98 100 100 102 116 133 144 165 182 201 226 249 256 254 272 62 81 93 99 102 102 102 98 92 77 59
215 81 154 206 191 215 214 185 166 134 143 167 217 197 191 174 160 177 194 228 209 201 201 181 223 237 257 268 239 247 226 197 188 185 185 184 184 184 182 178 169 165 159 152 154 156 162 166 167 171 166 152 140 138 138 138 141 142 141 149 157 160 179 182 164 154 142 128 108 94 101 126 129 129 141 200 206 210 217 221 224 232 237 225 176 107 84 94 102 101 98 98 95 86 79 69 60
237 145 213 227 205 258 265 200 162 148 168 199 204 185 192 184 188 212 202 217 193 211 219 200 210 206 225 254 238 241 217 195 189 188 188 189 189 188 188 186 178 172 164 155 155 154 153 158 162 166 173 166 151 145 146 152 158 162 166 172 180 189 198 201 199 201 217 214 181 153 147 158 171 180 195 208 211 212 216 220 222 219 191 119 97 89 92 102 102 96 92 86 75 68 59 49 45
235 177 229 222 46 334 139 156 140 151 204 209 192 172 183 187 211 232 193 213 199 212 228 210 212 211 239 261 246 238 210 197 193 190 190 191 194 194 193 192 186 179 172 167 166 167 164 164 168 165 169 172 159 150 150 152 158 166 172 174 182 193 199 206 207 209 223 219 206 204 195 189 192 186 180 196 209 213 213 206 193 172 128 100 91 91 94 97 90 84 80 72 62 54 46 38 31
196 176 248 173 113 176 152 128 142 193 207 179 167 162 176 193 223 224 193 223 209 208 222 207 206 226 249 240 248 239 216 202 195 193 193 194 197 198 198 196 192 186 181 179 179 178 175 171 169 165 164 169 166 158 157 158 166 171 176 182 192 200 201 207 212 217 219 215 215 210 207 204 190 174 170 180 191 199 196 169 136 118 110 105 103 101 95 83 74 68 63 56 50 43 36 29 23
164 143 224 148 154 179 181 166 153 204 194 144 160 164 177 208 223 215 217 233 225 222 229 212 199 200 238 212 212 226 216 204 196 195 195 197 200 201 202 201 196 192 190 188 182 176 172 171 172 173 176 182 182 180 189 198 193 185 187 201 218 220 209 206 209 216 209 196 186 179 183 188 182 174 171 171 174 174 159 139 127 120 119 121 116 110 98 83 70 61 56 47 39 32 26 21 16
148 136 184 177 187 206 186 170 156 196 166 131 160 165 179 217 223 218 223 227 237 236 232 220 209 212 226 220 216 206 206 203 199 197 197 200 202 204 204 203 200 196 196 190 181 177 178 184 188 190 191 192 194 198 214 226 219 217 225 230 243 239 222 218 208 205 191 173 170 173 176 179 185 187 169 156 150 146 137 129 127 125 125 125 120 113 95 75 70 63 55 43 27 17 12 9 5
141 157 231 204 203 205 176 174 167 163 124 127 161 177 192 212 217 225 232 228 236 244 236 229 224 229 236 238 238 226 214 207 204 200 199 203 205 207 207 205 203 200 198 192 185 186 192 198 202 203 202 201 202 206 216 226 228 234 241 234 239 229 205 196 188 189 187 179 173 170 173 172 164 150 137 132 129 127 125 121 122 125 127 129 123 111 84 57 69 63 43 27 14 6 360 358 358
191 215 233 225 204 187 171 176 171 96 108 143 172 190 208 208 198 216 236 230 228 245 245 241 241 241 243 247 247 240 233 220 210 206 203 204 207 209 211 209 207 205 203 199 197 200 202 204 207 210 211 210 211 214 220 229 234 242 247 241 236 222 198 184 186 188 181 173 164 156 152 145 137 127 121 122 120 117 118 119 125 132 134 139 138 110 96 82 67 42 22 10 2 356 353 354 353
264 235 245 240 149 113 124 164 167 124 91 131 173 192 213 219 175 199 230 224 211 241 247 239 246 249 248 249 252 248 239 230 219 213 209 206 207 211 214 213 211 211 209 208 207 207 208 208 208 213 217 217 220 224 229 238 245 247 244 239 225 216 214 211 211 195 180 170 159 150 144 138 132 127 124 121 119 123 129 131 135 137 129 130 132 98 81 63 34 13 2 352 346 346 347 347 345
67 251 253 230 89 103 112 132 148 149 89 112 159 184 212 225 180 190 233 237 216 239 241 226 242 253 254 253 254 253 244 234 225 218 216 212 209 211 215 217 216 216 214 213 213 212 212 212 211 215 219 219 225 229 235 244 247 247 242 233 222 222 229 234 224 201 185 174 163 157 154 149 143 138 134 134 140 147 153 154 150 145 147 161 164 106 39 10 355 345 338 335 336 339 339 337 337
153 255 296 71 119 132 119 126 134 167 202 123 143 169 210 223 208 206 230 256 243 239 242 242 250 258 260 257 251 249 244 235 228 223 221 217 214 212 214 217 218 219 218 217 216 216 216 215 215 218 220 220 227 230 234 239 238 240 240 237 234 237 238 231 216 202 191 181 173 168 164 158 154 152 151 155 162 169 173 178 193 226 233 226 215 233 303 316 318 319 321 324 327 328 328 329 330
151 233 8 78 173 125 112 161 182 194 209 160 164 186 214 215 217 220 223 245 255 244 250 259 255 249 253 251 244 243 242 237 230 226 224 222 219 216 215 216 217 219 220 220 219 219 219 217 217 221 221 221 227 230 229 230 231 232 235 238 239 240 239 228 212 203 196 188 179 173 169 164 163 164 165 169 174 179 188 202 218 223 217 216 223 249 274 290 300 306 311 314 317 318 321 323 325
249 146 93 139 158 65 108 166 202 198 193 185 189 215 219 216 232 231 230 241 251 259 266 269 260 251 251 249 248 249 248 245 236 230 228 226 223 220 219 218 219 219 220 222 221 221 220 218 218 221 222 223 226 227 226 229 230 233 235 237 239 238 233 223 214 209 204 194 185 180 175 170 169 170 171 176 183 190 204 221 226 221 217 224 234 249 268 282 292 298 304 308 312 315 318 320 322
278 172 133 172 155 71 127 171 208 186 196 212 211 233 220 224 253 249 246 254 258 262 267 266 264 262 257 254 255 257 256 253 246 237 231 229 227 224 223 221 221 221 221 222 222 221 220 218 219 221 221 224 227 226 229 233 236 237 237 238 239 235 227 220 216 213 210 201 192 186 179 175 173 173 177 185 195 206 221 228 227 225 228 235 244 256 271 281 289 295 301 305 310 313 316 316 316
274 291 130 172 164 164 192 184 207 191 213 224 216 236 229 234 264 269 265 271 270 265 267 264 262 261 258 257 257 257 257 254 250 244 235 230 228 227 225 223 223 223 223 223 222 221 220 218 219 221 222 224 227 228 231 235 239 240 240 242 240 233 226 221 217 212 209 203 196 190 183 179 178 178 187 199 209 220 227 227 226 229 236 244 255 269 279 286 291 296 300 305 308 311 313 314 316
18 343 142 174 172 196 224 203 201 200 212 214 225 239 235 243 270 272 268 273 272 265 263 259 257 257 255 255 256 256 256 255 251 248 244 236 230 229 228 225 225 225 225 225 224 222 220 219 220 222 224 225 228 231 233 236 240 242 242 241 237 232 228 224 220 215 209 204 199 194 188 184 184 188 197 207 217 227 230 230 231 235 243 252 264 275 281 287 293 298 303 306 308 311 313 316 317
62 143 155 174 196 218 232 213 191 209 220 210 237 258 241 229 263 264 257 256 267 271 262 256 255 255 255 253 253 254 253 254 252 249 248 244 237 234 231 228 228 228 227 227 226 223 220 219 221 223 225 226 229 232 233 238 241 242 242 238 234 231 229 226 221 216 211 206 202 198 194 192 193 199 206 214 222 228 232 234 237 242 248 255 262 270 278 284 290 296 299 303 307 311 314 315 316
117 158 171 174 232 239 224 225 196 206 226 202 233 274 247 174 218 246 242 247 266 274 268 264 261 259 258 255 253 253 253 253 252 251 250 249 247 243 239 235 232 231 230 229 228 225 220 220 222 224 225 227 230 233 234 238 241 242 240 236 233 231 229 227 222 217 213 210 207 203 201 201 203 208 214 221 227 231 233 236 240 247 252 258 263 268 275 280 285 290 294 299 305 310 314 315 316
145 167 234 220 248 243 206 206 194 197 217 164 204 279 245 193 223 246 247 255 263 266 267 268 266 264 262 259 257 255 255 255 254 254 254 253 252 249 246 241 237 235 233 231 230 227 222 220 223 224 225 227 230 233 235 238 241 241 238 234 232 231 229 227 224 221 217 215 211 207 208 210 214 219 224 228 230 233 236 239 244 249 254 259 265 270 274 278 283 287 293 301 309 315 319 320 320
158 150 289 268 264 249 172 166 176 189 201 144 179 280 251 197 219 239 247 253 258 262 266 268 268 266 263 262 261 259 258 256 256 257 256 255 253 250 247 243 237 235 234 233 232 230 225 222 223 224 224 227 230 232 235 239 242 239 235 233 232 231 228 226 226 224 222 220 216 212 213 217 222 227 233 236 235 237 239 242 247 251 256 261 265 269 271 275 279 284 295 305 315 321 324 325 324
184 160 250 255 269 234 121 155 178 191 189 154 191 261 266 242 218 212 241 258 258 261 265 268 271 271 268 265 263 261 260 258 257 257 257 255 253 250 246 243 238 235 233 233 232 231 229 226 226 225 225 227 230 232 235 238 241 238 233 231 231 232 228 226 224 224 224 224 222 220 220 223 228 232 237 241 241 242 243 245 248 252 257 261 263 265 266 269 274 283 294 307 317 321 322 321 319
186 248 236 192 235 239 131 173 192 219 163 163 201 253 266 272 264 223 254 265 258 261 270 272 273 273 270 269 267 264 262 260 258 256 256 254 253 251 246 244 240 237 236 233 232 231 230 229 228 227 226 227 230 232 234 238 240 236 232 231 231 230 227 225 224 223 224 226 227 227 226 229 233 237 240 242 242 243 245 246 248 251 254 257 259 261 262 264 267 275 289 307 316 318 317 315 314
190 238 258 233 228 264 284 169 194 235 141 183 220 259 273 269 315 311 266 273 270 271 278 279 276 274 271 269 268 267 265 264 261 257 256 254 254 253 248 245 241 239 238 236 234 232 231 230 229 227 227 228 230 233 235 238 238 234 231 231 232 229 226 225 224 225 226 227 228 229 231 234 237 240 242 242 243 244 245 247 249 251 255 256 257 257 256 257 261 273 293 308 314 315 313 311 311
209 202 247 256 244 259 267 192 167 193 212 220 224 243 259 261 273 277 277 277 271 266 273 278 278 275 273 270 267 267 265 264 262 260 259 257 255 255 251 247 243 239 238 238 238 236 234 232 230 228 227 229 231 233 235 237 236 233 231 232 232 230 227 225 226 227 227 226 228 229 232 235 239 242 243 244 246 246 245 245 247 251 254 254 253 253 252 254 261 278 299 308 311 310 307 304 306
255 233 246 261 244 236 251 262 156 177 222 241 231 244 257 259 262 266 271 271 262 258 266 272 274 273 271 270 269 269 266 264 263 262 260 259 257 256 253 248 244 240 238 237 237 236 235 233 232 229 228 230 232 233 235 236 235 232 231 231 231 230 228 227 227 228 227 226 226 228 231 235 239 241 241 244 246 245 243 244 248 250 251 249 249 248 249 253 264 283 299 305 306 303 298 297 299
294 270 266 272 265 246 248 262 182 193 246 251 243 256 264 263 261 262 270 270 257 257 264 267 268 269 267 268 269 269 268 266 266 264 262 260 258 256 253 250 245 241 239 237 236 236 235 234 233 231 230 231 233 234 234 235 234 232 231 231 231 232 231 230 229 229 229 230 230 229 231 234 238 240 240 244 245 242 242 244 248 249 246 245 245 246 247 252 267 288 302 304 300 295 291 291 294
278 268 265 264 267 267 259 253 173 181 259 265 249 260 268 268 266 263 269 273 263 254 258 258 260 264 266 268 268 268 268 269 268 266 265 263 260 256 252 250 247 242 239 238 237 237 237 237 235 234 233 233 234 235 235 235 235 234 233 232 233 234 233 232 231 230 231 233 235 234 234 236 238 239 241 243 242 241 241 245 248 245 242 242 244 245 246 253 271 292 302 301 295 289 288 291 294
246 258 266 263 260 268 268 266 162 158 238 270 259 269 272 268 265 260 260 267 264 255 251 253 257 261 265 266 268 269 268 269 269 268 266 264 261 257 253 250 247 244 242 240 239 238 238 238 237 237 237 237 237 237 237 238 238 238 238 237 237 238 238 237 235 234 233 233 235 237 237 238 238 239 242 242 240 240 242 245 246 243 241 244 244 242 245 256 276 293 299 297 289 281 281 285 289
239 244 261 265 263 283 274 256 132 167 229 275 282 282 280 274 265 255 246 247 255 257 253 256 261 263 264 264 267 270 269 269 270 270 267 263 261 258 254 250 247 245 243 241 239 238 238 238 238 238 239 239 239 239 239 240 240 240 238 238 238 239 239 239 239 238 237 236 237 238 239 240 240 241 242 241 240 241 243 245 244 242 243 244 242 241 247 260 278 291 295 292 280 272 273 277 279
233 230 247 257 250 285 266 210 113 189 225 281 295 288 283 277 258 247 243 242 253 263 262 263 262 259 262 263 264 268 271 272 274 275 271 264 260 258 255 253 250 246 242 240 238 237 237 239 240 240 240 241 240 240 240 240 241 239 238 238 238 238 238 239 240 240 239 238 238 240 241 241 242 242 242 240 241 242 244 244 242 242 243 241 240 242 250 262 275 284 289 285 272 267 270 273 275
229 222 236 253 245 246 251 291 334 259 224 262 294 287 281 273 234 231 234 232 250 261 261 264 263 260 262 264 266 270 273 274 275 275 272 266 260 258 257 255 251 247 243 241 239 237 238 239 240 241 242 242 242 242 241 240 241 239 239 238 238 238 238 238 239 240 240 239 240 241 241 242 242 242 241 240 242 243 244 244 244 243 241 240 242 245 251 261 270 277 284 280 269 265 268 272 274
245 217 220 241 253 253 255 287 325 285 247 194 325 296 284 278 214 226 216 222 249 248 243 258 264 263 262 267 274 279 280 277 273 269 269 267 262 257 255 253 251 249 246 244 242 240 240 241 241 242 243 244 244 243 241 240 241 241 241 241 241 241 242 244 246 247 246 244 243 241 241 242 242 242 241 241 242 242 243 244 244 242 240 242 245 247 252 261 267 273 276 272 264 263 265 269 271
268 214 206 229 246 254 257 255 246 278 289 119 21 297 292 294 277 244 229 242 252 248 241 254 259 260 265 277 288 291 289 282 272 266 264 265 263 258 254 251 250 250 249 246 244 241 241 241 242 243 244 245 245 243 241 240 239 241 242 243 244 246 248 252 253 253 252 251 249 246 244 243 242 242 242 242 242 242 242 243 243 241 240 244 246 246 252 260 264 266 266 262 259 260 263 266 271
271 83 176 210 222 231 234 233 234 276 312 274 197 218 277 290 287 198 186 219 241 247 250 254 257 263 275 290 304 300 292 281 274 269 265 264 263 261 258 254 251 251 249 245 241 239 238 240 241 243 244 245 244 243 241 239 238 239 242 245 247 249 251 254 255 254 254 253 251 249 247 244 243 243 242 242 242 241 241 241 241 240 241 244 245 245 251 257 258 258 258 257 257 259 263 267 271
290 81 101 152 172 214 206 231 256 285 312 280 196 176 238 273 274 133 150 214 242 244 249 256 271 314 298 303 317 310 304 294 288 282 273 270 265 260 255 252 249 245 243 241 239 238 238 238 239 240 241 242 242 241 240 237 236 238 242 245 248 250 252 254 254 254 254 252 251 249 247 245 243 243 243 242 242 241 241 240 240 240 242 244 244 245 250 252 251 253 252 252 254 258 262 266 269
121 124 104 93 103 85 131 240 271 262 280 271 193 172 217 275 275 216 146 217 244 242 252 274 331 352 328 315 301 310 350 4 356 340 310 293 272 256 242 237 236 235 236 236 236 235 234 234 235 236 237 238 239 238 238 237 236 238 240 242 245 247 249 251 252 252 252 251 250 248 246 244 243 243 243 242 242 241 241 240 240 241 242 244 244 246 249 249 249 251 249 247 251 256 261 264 266
132 146 137 116 121 105 126 230 273 253 265 260 187 187 210 272 281 242 146 190 223 251 284 348 0 8 7 357 305 307 342 343 350 353 342 324 291 263 245 237 233 231 231 230 230 229 229 229 231 232 233 234 236 236 236 237 237 238 241 242 243 245 246 247 248 249 249 249 249 249 247 245 243 243 243 242 242 241 241 241 241 242 242 243 244 245 248 249 250 249 247 246 250 254 259 262 265
168 178 188 212 196 179 200 184 172 238 256 263 152 198 213 240 260 120 86 28 131 259 294 343 345 344 340 333 314 306 307 307 309 311 316 316 301 278 258 248 239 232 229 228 228 228 227 227 227 228 229 230 233 234 235 237 239 240 241 242 243 244 244 245 246 247 249 250 250 250 248 246 244 243 242 242 242 241 241 242 243 243 243 244 245 246 248 250 249 248 245 246 250 253 257 260 262
204 201 194 230 250 239 241 221 194 237 245 98 74 207 214 241 257 269 274 270 248 220 237 284 297 302 303 301 297 295 295 296 296 297 301 305 298 283 269 258 248 240 235 231 230 227 226 225 224 225 226 228 231 233 236 238 240 242 243 243 244 244 244 245 246 246 248 249 249 249 249 247 247 245 245 244 243 243 243 244 244 245 245 246 246 247 249 250 248 246 245 246 249 251 254 257 259
192 200 197 220 241 245 246 239 232 251 246 106 113 184 236 258 269 270 268 280 287 226 230 265 281 288 293 298 300 300 301 301 303 305 306 303 293 285 279 268 257 248 241 236 231 227 225 224 223 224 224 227 229 232 235 238 241 244 245 246 247 247 246 247 247 247 248 249 248 248 249 249 249 248 248 247 246 245 245 246 247 247 247 247 247 247 249 249 247 245 244 245 247 249 251 255 257
191 200 202 229 232 223 241 248 251 274 300 152 152 171 242 260 294 195 263 334 338 264 236 259 279 285 291 299 302 306 310 311 316 319 311 301 295 293 287 275 262 250 242 236 232 228 225 224 223 224 224 227 229 231 234 238 241 244 246 248 249 250 249 249 249 249 249 250 249 248 248 248 248 248 248 248 247 247 247 248 248 248 248 247 247 247 247 247 245 244 244 244 245 247 250 253 255
182 131 199 243 232 211 245 276 266 306 305 244 204 218 248 260 270 219 215 262 270 268 264 266 277 285 291 297 303 314 318 318 329 330 312 291 292 295 292 288 274 257 244 236 233 230 228 227 227 228 230 233 235 236 238 241 244 247 249 251 251 251 252 251 251 251 250 251 250 249 249 248 248 247 247 246 246 246 247 248 249 249 249 248 246 246 246 246 244 243 243 244 245 246 248 251 254
144 169 204 224 278 216 245 266 190 189 271 255 226 245 260 270 276 253 181 216 235 247 260 265 273 280 285 294 315 329 322 322 331 327 311 292 283 280 289 296 291 275 255 241 236 235 234 233 233 234 236 239 242 244 245 246 248 251 253 253 252 252 253 254 254 254 254 253 252 251 250 249 247 246 246 245 245 245 246 247 248 248 248 247 246 246 245 245 244 243 243 243 244 245 247 249 252
152 196 204 120 45 284 245 260 250 226 255 254 235 251 266 272 272 129 124 143 168 213 232 261 275 274 278 298 328 322 312 321 332 328 323 311 280 269 284 292 292 288 274 258 250 247 244 240 240 242 244 248 251 252 252 252 254 255 255 254 253 254 255 256 256 257 257 256 254 252 250 249 247 246 246 246 245 244 245 246 247 247 246 246 245 244 244 244 243 243 243 243 243 243 246 248 250
185 289 319 113 243 238 194 215 253 248 253 258 251 257 264 262 252 212 186 167 156 191 194 216 248 244 257 304 311 300 306 330 338 330 321 298 262 265 282 287 291 298 302 297 283 269 258 250 247 249 253 256 257 259 261 260 259 259 257 256 256 257 256 257 258 258 258 257 255 252 250 249 248 248 247 247 246 245 244 245 245 245 245 244 244 243 242 242 241 242 242 242 243 243 245 248 249
53 292 269 303 264 252 219 177 231 252 254 263 269 267 267 265 249 207 194 156 158 193 204 217 238 232 251 291 286 289 320 337 329 322 310 280 255 269 274 277 314 336 333 325 316 305 291 279 272 270 270 269 268 269 268 266 263 261 259 259 260 260 259 258 258 258 258 258 257 254 251 250 249 249 248 247 247 246 245 245 245 245 245 244 243 242 241 241 241 242 242 242 243 243 245 247 249
171 213 210 204 208 267 292 235 208 240 249 255 266 268 273 283 104 120 148 162 176 208 221 221 230 235 255 277 282 307 330 326 316 310 297 271 258 266 264 285 312 310 309 306 304 300 294 286 281 278 276 273 272 271 270 268 266 263 262 263 264 263 262 259 258 257 257 258 257 254 252 251 250 250 249 248 247 247 246 246 245 245 245 244 243 242 241 241 241 242 242 242 243 243 244 246 248
193 201 204 207 195 179 240 233 201 192 241 245 248 264 272 274 106 112 169 190 191 206 230 241 234 235 259 284 303 321 320 314 308 299 283 264 261 271 280 288 292 295 298 298 297 293 286 280 275 272 271 270 271 271 271 270 267 264 264 265 266 265 263 261 258 257 257 256 256 255 253 251 250 250 249 248 248 247 247 246 246 246 245 244 243 243 242 241 241 242 242 242 243 243 244 246 248